Location: ??????????
(42.1626°N, 44.1160°E)
Time: 13:19:10
(UTC+00:00)

Meteor 1-18 Rocket - Pass Details

Date: 03 March 2021
Orbit: 836 x 909 km, 81.2° (Epoch: 13 April)

Event Time Altitude Azimuth Distance (km) Brightness Sun altitude
Rises 16:06:49 0° 348° (NNW) 3,549 7.7 -13.9°
Reaches altitude 10° 16:09:18 10° 347° (NNW) 2,603 7.0 -14.4°
Maximum altitude 16:15:15 78° 263° (W) 931 4.5 -15.5°
Drops below altitude 10° 16:21:06 10° 178° (S) 2,566 6.6 -16.6°
Sets 16:23:32 0° 177° (S) 3,494 7.3 -17.0°
